Time,TemperatureF,DewpointF,PressureIn,WindDirection,WindDirectionDegrees,WindSpeedMPH,WindSpeedGustMPH,Humidity,HourlyPrecipIn,Conditions,Clouds,dailyrainin,SoftwareType,DateUTC
2013-01-23 00:03:00,20.0,-1.0,-100.00,North,5,17.0,30.0,38,-99.99,,,-99.99,,2013-01-23 05:03:00,
2013-01-23 00:12:00,20.0,-2.0,-100.00,North,5,20.0,27.0,38,-99.99,,,-99.99,,2013-01-23 05:12:00,
2013-01-23 00:23:00,20.0,-2.0,-100.00,North,5,20.0,27.0,38,-99.99,,,-99.99,,2013-01-23 05:23:00,
2013-01-23 00:33:00,20.0,-1.0,-100.00,North,5,26.0,34.0,39,-99.99,,,-99.99,,2013-01-23 05:33:00,
2013-01-23 00:43:00,19.0,-2.0,-100.00,North,5,22.0,33.0,39,-99.99,,,-99.99,,2013-01-23 05:43:00,
2013-01-23 00:52:00,19.0,-2.0,-100.00,North,5,22.0,33.0,39,-99.99,,,-99.99,,2013-01-23 05:52:00,
2013-01-23 01:03:00,19.0,-2.0,-100.00,North,5,21.0,31.0,39,-99.99,,,-99.99,,2013-01-23 06:03:00,
2013-01-23 01:13:00,19.0,-2.0,-100.00,North,5,23.0,26.0,39,-99.99,,,-99.99,,2013-01-23 06:13:00,
2013-01-23 01:23:00,19.0,-2.0,-100.00,North,5,23.0,26.0,39,-99.99,,,-99.99,,2013-01-23 06:23:00,
2013-01-23 01:33:00,19.0,-2.0,-100.00,North,5,23.0,26.0,39,-99.99,,,-99.99,,2013-01-23 06:33:00,
2013-01-23 01:43:00,18.0,-3.0,-100.00,North,5,21.0,26.0,38,-99.99,,,-99.99,,2013-01-23 06:43:00,
2013-01-23 01:52:00,18.0,-3.0,-100.00,North,5,21.0,26.0,38,-99.99,,,-99.99,,2013-01-23 06:52:00,
2013-01-23 02:02:00,18.0,-2.0,-100.00,North,5,18.0,26.0,39,-99.99,,,-99.99,,2013-01-23 07:02:00,
2013-01-23 02:13:00,18.0,-3.0,-100.00,North,5,21.0,25.0,38,-99.99,,,-99.99,,2013-01-23 07:13:00,
2013-01-23 02:23:00,18.0,-3.0,-100.00,North,5,21.0,25.0,38,-99.99,,,-99.99,,2013-01-23 07:23:00,
2013-01-23 02:33:00,18.0,-3.0,-100.00,North,5,20.0,24.0,38,-99.99,,,-99.99,,2013-01-23 07:33:00,
2013-01-23 02:43:00,18.0,-2.0,-100.00,North,5,14.0,21.0,39,-99.99,,,-99.99,,2013-01-23 07:43:00,
2013-01-23 02:53:00,18.0,-2.0,-100.00,North,5,14.0,21.0,39,-99.99,,,-99.99,,2013-01-23 07:53:00,
2013-01-23 03:02:00,18.0,-2.0,-100.00,North,5,14.0,18.0,39,-99.99,,,-99.99,,2013-01-23 08:02:00,
2013-01-23 03:13:00,18.0,-2.0,-100.00,North,5,14.0,18.0,39,-99.99,,,-99.99,,2013-01-23 08:13:00,
2013-01-23 03:53:00,18.0,-3.0,-100.00,North,5,20.0,27.0,39,-99.99,,,-99.99,,2013-01-23 08:53:00,
2013-01-23 04:03:00,18.0,-3.0,-100.00,North,5,20.0,27.0,39,-99.99,,,-99.99,,2013-01-23 09:03:00,
2013-01-23 04:12:00,18.0,-3.0,-100.00,North,5,20.0,26.0,39,-99.99,,,-99.99,,2013-01-23 09:12:00,
2013-01-23 04:23:00,18.0,-3.0,-100.00,North,5,20.0,26.0,39,-99.99,,,-99.99,,2013-01-23 09:23:00,
2013-01-23 04:33:00,18.0,-2.0,-100.00,North,5,17.0,24.0,40,-99.99,,,-99.99,,2013-01-23 09:33:00,
2013-01-23 04:43:00,18.0,-3.0,-100.00,North,5,17.0,21.0,39,-99.99,,,-99.99,,2013-01-23 09:43:00,
2013-01-23 04:53:00,18.0,-3.0,-100.00,North,5,17.0,21.0,39,-99.99,,,-99.99,,2013-01-23 09:53:00,
2013-01-23 05:03:00,18.0,-2.0,-100.00,North,5,16.0,22.0,40,-99.99,,,-99.99,,2013-01-23 10:03:00,
2013-01-23 05:12:00,18.0,-2.0,-100.00,North,5,13.0,19.0,40,-99.99,,,-99.99,,2013-01-23 10:12:00,
2013-01-23 05:23:00,18.0,-2.0,-100.00,North,5,13.0,19.0,40,-99.99,,,-99.99,,2013-01-23 10:23:00,
2013-01-23 05:33:00,18.0,-3.0,-100.00,North,5,11.0,22.0,39,-99.99,,,-99.99,,2013-01-23 10:33:00,
2013-01-23 05:43:00,18.0,-3.0,-100.00,North,5,14.0,23.0,39,-99.99,,,-99.99,,2013-01-23 10:43:00,
2013-01-23 05:52:00,18.0,-3.0,-100.00,North,5,15.0,21.0,38,-99.99,,,-99.99,,2013-01-23 10:52:00,
2013-01-23 06:03:00,18.0,-3.0,-100.00,North,5,15.0,21.0,38,-99.99,,,-99.99,,2013-01-23 11:03:00,
2013-01-23 06:12:00,18.0,-3.0,-100.00,North,5,10.0,21.0,39,-99.99,,,-99.99,,2013-01-23 11:12:00,
2013-01-23 06:23:00,18.0,-3.0,-100.00,North,5,10.0,21.0,39,-99.99,,,-99.99,,2013-01-23 11:23:00,
2013-01-23 06:34:00,18.0,-4.0,-100.00,North,5,13.0,24.0,38,-99.99,,,-99.99,,2013-01-23 11:34:00,
2013-01-23 06:43:00,18.0,-4.0,-100.00,North,5,17.0,22.0,38,-99.99,,,-99.99,,2013-01-23 11:43:00,
2013-01-23 06:53:00,18.0,-4.0,-100.00,North,5,17.0,22.0,38,-99.99,,,-99.99,,2013-01-23 11:53:00,
2013-01-23 07:03:00,18.0,-3.0,-100.00,North,5,13.0,24.0,39,-99.99,,,-99.99,,2013-01-23 12:03:00,
2013-01-23 07:13:00,17.0,-3.0,-100.00,North,5,15.0,24.0,39,-99.99,,,-99.99,,2013-01-23 12:13:00,
2013-01-23 07:23:00,17.0,-3.0,-100.00,North,5,15.0,24.0,39,-99.99,,,-99.99,,2013-01-23 12:23:00,
2013-01-23 07:33:00,17.0,-3.0,-100.00,North,5,15.0,21.0,39,-99.99,,,-99.99,,2013-01-23 12:33:00,
2013-01-23 07:43:00,17.0,-3.0,-100.00,North,5,13.0,21.0,39,-99.99,,,-99.99,,2013-01-23 12:43:00,
2013-01-23 07:53:00,17.0,-3.0,-100.00,North,5,13.0,21.0,39,-99.99,,,-99.99,,2013-01-23 12:53:00,
2013-01-23 08:04:00,17.0,-3.0,-100.00,North,5,16.0,24.0,39,-99.99,,,-99.99,,2013-01-23 13:04:00,
2013-01-23 08:13:00,17.0,-3.0,-100.00,North,5,17.0,24.0,39,-99.99,,,-99.99,,2013-01-23 13:13:00,
2013-01-23 08:23:00,17.0,-3.0,-100.00,North,5,17.0,24.0,39,-99.99,,,-99.99,,2013-01-23 13:23:00,
2013-01-23 08:33:00,18.0,-3.0,-100.00,North,5,13.0,23.0,39,-99.99,,,-99.99,,2013-01-23 13:33:00,
2013-01-23 08:43:00,18.0,-2.0,-100.00,North,5,14.0,22.0,39,-99.99,,,-99.99,,2013-01-23 13:43:00,
2013-01-23 08:53:00,18.0,-2.0,-100.00,North,5,14.0,22.0,39,-99.99,,,-99.99,,2013-01-23 13:53:00,
2013-01-23 09:03:00,18.0,-3.0,-100.00,North,5,12.0,25.0,38,-99.99,,,-99.99,,2013-01-23 14:03:00,
2013-01-23 09:12:00,18.0,-3.0,-100.00,North,5,13.0,23.0,38,-99.99,,,-99.99,,2013-01-23 14:12:00,
2013-01-23 09:23:00,18.0,-3.0,-100.00,North,5,13.0,23.0,38,-99.99,,,-99.99,,2013-01-23 14:23:00,
2013-01-23 09:33:00,19.0,-2.0,-100.00,North,5,15.0,24.0,38,-99.99,,,-99.99,,2013-01-23 14:33:00,
2013-01-23 09:43:00,20.0,-2.0,-100.00,North,5,15.0,21.0,38,-99.99,,,-99.99,,2013-01-23 14:43:00,
2013-01-23 09:53:00,20.0,-2.0,-100.00,North,5,15.0,21.0,38,-99.99,,,-99.99,,2013-01-23 14:53:00,
2013-01-23 10:13:00,19.0,-3.0,-100.00,North,5,14.0,26.0,37,-99.99,,,-99.99,,2013-01-23 15:13:00,
2013-01-23 10:23:00,19.0,-3.0,-100.00,North,5,14.0,26.0,37,-99.99,,,-99.99,,2013-01-23 15:23:00,
2013-01-23 10:33:00,20.0,-2.0,-100.00,North,5,14.0,22.0,38,-99.99,,,-99.99,,2013-01-23 15:33:00,
2013-01-23 10:43:00,20.0,-2.0,-100.00,North,5,17.0,27.0,38,-99.99,,,-99.99,,2013-01-23 15:43:00,
2013-01-23 10:53:00,20.0,-2.0,-100.00,North,5,17.0,27.0,38,-99.99,,,-99.99,,2013-01-23 15:53:00,
2013-01-23 11:03:00,20.0,-1.0,-100.00,North,5,14.0,24.0,38,-99.99,,,-99.99,,2013-01-23 16:03:00,
2013-01-23 11:12:00,20.0,-2.0,-100.00,North,5,21.0,26.0,37,-99.99,,,-99.99,,2013-01-23 16:12:00,
2013-01-23 11:23:00,20.0,-2.0,-100.00,North,5,21.0,26.0,37,-99.99,,,-99.99,,2013-01-23 16:23:00,
2013-01-23 11:33:00,21.0,-1.0,-100.00,North,5,14.0,26.0,37,-99.99,,,-99.99,,2013-01-23 16:33:00,
2013-01-23 11:43:00,21.0,-1.0,-100.00,North,5,20.0,26.0,37,-99.99,,,-99.99,,2013-01-23 16:43:00,
2013-01-23 11:52:00,21.0,-1.0,-100.00,North,5,20.0,26.0,37,-99.99,,,-99.99,,2013-01-23 16:52:00,
2013-01-23 12:03:00,21.0,-1.0,-100.00,North,5,17.0,26.0,36,-99.99,,,-99.99,,2013-01-23 17:03:00,
2013-01-23 12:13:00,22.0,-2.0,-100.00,North,5,20.0,27.0,35,-99.99,,,-99.99,,2013-01-23 17:13:00,
2013-01-23 12:23:00,22.0,-2.0,-100.00,North,5,20.0,27.0,35,-99.99,,,-99.99,,2013-01-23 17:23:00,
2013-01-23 12:34:00,22.0,-1.0,-100.00,North,5,13.0,25.0,35,-99.99,,,-99.99,,2013-01-23 17:34:00,
2013-01-23 12:43:00,22.0,-2.0,-100.00,North,5,16.0,23.0,34,-99.99,,,-99.99,,2013-01-23 17:43:00,
2013-01-23 12:53:00,22.0,-2.0,-100.00,North,5,16.0,23.0,34,-99.99,,,-99.99,,2013-01-23 17:53:00,
2013-01-23 13:04:00,22.0,-1.0,-100.00,North,5,13.0,21.0,35,-99.99,,,-99.99,,2013-01-23 18:04:00,
2013-01-23 13:13:00,22.0,-2.0,-100.00,North,5,16.0,27.0,34,-99.99,,,-99.99,,2013-01-23 18:13:00,
2013-01-23 13:24:00,22.0,-2.0,-100.00,North,5,16.0,27.0,34,-99.99,,,-99.99,,2013-01-23 18:24:00,
2013-01-23 13:33:00,22.0,-2.0,-100.00,North,5,13.0,27.0,34,-99.99,,,-99.99,,2013-01-23 18:33:00,
2013-01-23 13:44:00,23.0,-2.0,-100.00,North,5,15.0,23.0,33,-99.99,,,-99.99,,2013-01-23 18:44:00,
2013-01-23 13:53:00,23.0,-2.0,-100.00,North,5,15.0,23.0,33,-99.99,,,-99.99,,2013-01-23 18:53:00,
2013-01-23 14:03:00,23.0,-2.0,-100.00,North,5,16.0,21.0,33,-99.99,,,-99.99,,2013-01-23 19:03:00,
2013-01-23 14:13:00,23.0,-1.0,-100.00,North,5,18.0,27.0,33,-99.99,,,-99.99,,2013-01-23 19:13:00,
2013-01-23 14:23:00,23.0,-1.0,-100.00,North,5,18.0,27.0,33,-99.99,,,-99.99,,2013-01-23 19:23:00,
2013-01-23 14:33:00,24.0,-1.0,-100.00,North,5,17.0,24.0,33,-99.99,,,-99.99,,2013-01-23 19:33:00,
2013-01-23 14:43:00,25.0,-1.0,-100.00,North,5,14.0,25.0,32,-99.99,,,-99.99,,2013-01-23 19:43:00,
2013-01-23 14:53:00,25.0,-1.0,-100.00,North,5,14.0,25.0,32,-99.99,,,-99.99,,2013-01-23 19:53:00,
2013-01-23 15:03:00,25.0,-1.0,-100.00,North,5,11.0,24.0,31,-99.99,,,-99.99,,2013-01-23 20:03:00,
2013-01-23 15:13:00,24.0,-2.0,-100.00,North,5,16.0,24.0,32,-99.99,,,-99.99,,2013-01-23 20:13:00,
2013-01-23 15:23:00,24.0,-2.0,-100.00,North,5,16.0,24.0,32,-99.99,,,-99.99,,2013-01-23 20:23:00,
2013-01-23 15:33:00,25.0,-2.0,-100.00,North,5,16.0,23.0,31,-99.99,,,-99.99,,2013-01-23 20:33:00,
2013-01-23 15:43:00,25.0,-1.0,-100.00,North,5,15.0,23.0,31,-99.99,,,-99.99,,2013-01-23 20:43:00,
2013-01-23 15:53:00,25.0,-1.0,-100.00,North,5,15.0,23.0,31,-99.99,,,-99.99,,2013-01-23 20:53:00,
2013-01-23 16:03:00,24.0,-2.0,-100.00,North,5,21.0,30.0,31,-99.99,,,-99.99,,2013-01-23 21:03:00,
2013-01-23 16:12:00,24.0,-2.0,-100.00,North,5,16.0,24.0,31,-99.99,,,-99.99,,2013-01-23 21:12:00,
2013-01-23 16:23:00,24.0,-2.0,-100.00,North,5,16.0,24.0,31,-99.99,,,-99.99,,2013-01-23 21:23:00,
2013-01-23 16:33:00,24.0,-2.0,-100.00,North,5,17.0,26.0,31,-99.99,,,-99.99,,2013-01-23 21:33:00,
2013-01-23 16:43:00,24.0,-2.0,-100.00,North,5,15.0,24.0,31,-99.99,,,-99.99,,2013-01-23 21:43:00,
2013-01-23 16:53:00,24.0,-2.0,-100.00,North,5,15.0,24.0,31,-99.99,,,-99.99,,2013-01-23 21:53:00,
2013-01-23 17:03:00,24.0,-3.0,-100.00,North,5,15.0,21.0,31,-99.99,,,-99.99,,2013-01-23 22:03:00,
2013-01-23 17:13:00,24.0,-2.0,-100.00,North,5,13.0,24.0,32,-99.99,,,-99.99,,2013-01-23 22:13:00,
2013-01-23 17:23:00,24.0,-2.0,-100.00,North,5,13.0,24.0,32,-99.99,,,-99.99,,2013-01-23 22:23:00,
2013-01-23 17:33:00,23.0,-3.0,-100.00,North,5,12.0,23.0,31,-99.99,,,-99.99,,2013-01-23 22:33:00,
2013-01-23 17:43:00,23.0,-2.0,-100.00,North,5,14.0,23.0,32,-99.99,,,-99.99,,2013-01-23 22:43:00,
2013-01-23 17:53:00,23.0,-2.0,-100.00,North,5,14.0,23.0,32,-99.99,,,-99.99,,2013-01-23 22:53:00,
2013-01-23 18:03:00,23.0,-3.0,-100.00,North,5,13.0,21.0,32,-99.99,,,-99.99,,2013-01-23 23:03:00,
2013-01-23 18:13:00,22.0,-2.0,-100.00,North,5,12.0,18.0,33,-99.99,,,-99.99,,2013-01-23 23:13:00,
2013-01-23 18:23:00,22.0,-2.0,-100.00,North,5,12.0,18.0,33,-99.99,,,-99.99,,2013-01-23 23:23:00,
2013-01-23 18:33:00,22.0,-2.0,-100.00,North,5,10.0,18.0,33,-99.99,,,-99.99,,2013-01-23 23:33:00,
2013-01-23 18:43:00,23.0,-2.0,-100.00,North,5,10.0,23.0,33,-99.99,,,-99.99,,2013-01-23 23:43:00,
2013-01-23 18:53:00,23.0,-2.0,-100.00,North,5,10.0,23.0,33,-99.99,,,-99.99,,2013-01-23 23:53:00,
2013-01-23 19:03:00,22.0,-2.0,-100.00,North,5,12.0,19.0,34,-99.99,,,-99.99,,2013-01-24 00:03:00,
2013-01-23 19:12:00,23.0,-1.0,-100.00,North,5,10.0,14.0,34,-99.99,,,-99.99,,2013-01-24 00:12:00,
2013-01-23 19:22:00,23.0,-1.0,-100.00,North,5,10.0,14.0,34,-99.99,,,-99.99,,2013-01-24 00:22:00,
2013-01-23 19:33:00,23.0,-2.0,-100.00,North,5,9.0,17.0,33,-99.99,,,-99.99,,2013-01-24 00:33:00,
2013-01-23 19:43:00,23.0,-1.0,-100.00,North,5,7.0,15.0,33,-99.99,,,-99.99,,2013-01-24 00:43:00,
2013-01-23 19:53:00,23.0,-1.0,-100.00,North,5,7.0,15.0,33,-99.99,,,-99.99,,2013-01-24 00:53:00,
2013-01-23 20:03:00,23.0,-1.0,-100.00,North,5,7.0,12.0,34,-99.99,,,-99.99,,2013-01-24 01:03:00,
2013-01-23 20:12:00,24.0,-1.0,-100.00,North,5,8.0,12.0,34,-99.99,,,-99.99,,2013-01-24 01:12:00,
2013-01-23 20:23:00,24.0,-1.0,-100.00,North,5,8.0,12.0,34,-99.99,,,-99.99,,2013-01-24 01:23:00,
2013-01-23 20:33:00,24.0,1.0,-100.00,North,5,11.0,13.0,36,-99.99,,,-99.99,,2013-01-24 01:33:00,
2013-01-23 20:43:00,22.0,0.0,-100.00,North,5,10.0,11.0,36,-99.99,,,-99.99,,2013-01-24 01:43:00,
2013-01-23 20:53:00,22.0,0.0,-100.00,North,5,10.0,11.0,36,-99.99,,,-99.99,,2013-01-24 01:53:00,
2013-01-23 21:03:00,22.0,-2.0,-100.00,North,5,11.0,13.0,35,-99.99,,,-99.99,,2013-01-24 02:03:00,
2013-01-23 21:12:00,21.0,-1.0,-100.00,North,5,8.0,11.0,37,-99.99,,,-99.99,,2013-01-24 02:12:00,
2013-01-23 21:23:00,21.0,-1.0,-100.00,North,5,8.0,11.0,37,-99.99,,,-99.99,,2013-01-24 02:23:00,
2013-01-23 21:33:00,21.0,-1.0,-100.00,North,5,10.0,13.0,37,-99.99,,,-99.99,,2013-01-24 02:33:00,
2013-01-23 21:42:00,21.0,-1.0,-100.00,North,5,10.0,13.0,37,-99.99,,,-99.99,,2013-01-24 02:42:00,
2013-01-23 22:03:00,21.0,-1.0,-100.00,North,5,11.0,14.0,37,-99.99,,,-99.99,,2013-01-24 03:03:00,
2013-01-23 22:12:00,21.0,0.0,-100.00,North,5,8.0,12.0,39,-99.99,,,-99.99,,2013-01-24 03:12:00,
2013-01-23 22:22:00,21.0,0.0,-100.00,North,5,8.0,12.0,39,-99.99,,,-99.99,,2013-01-24 03:22:00,
2013-01-23 22:33:00,21.0,-1.0,-100.00,North,5,10.0,12.0,38,-99.99,,,-99.99,,2013-01-24 03:33:00,
2013-01-23 22:43:00,21.0,-1.0,-100.00,North,5,10.0,13.0,37,-99.99,,,-99.99,,2013-01-24 03:43:00,
2013-01-23 22:52:00,21.0,-1.0,-100.00,North,5,10.0,13.0,37,-99.99,,,-99.99,,2013-01-24 03:52:00,
2013-01-23 23:03:00,21.0,-1.0,-100.00,North,5,12.0,15.0,38,-99.99,,,-99.99,,2013-01-24 04:03:00,
2013-01-23 23:12:00,21.0,-1.0,-100.00,North,5,11.0,17.0,38,-99.99,,,-99.99,,2013-01-24 04:12:00,
2013-01-23 23:22:00,21.0,-1.0,-100.00,North,5,11.0,17.0,38,-99.99,,,-99.99,,2013-01-24 04:22:00,
2013-01-23 23:33:00,21.0,-1.0,-100.00,North,5,12.0,15.0,38,-99.99,,,-99.99,,2013-01-24 04:33:00,
2013-01-23 23:43:00,21.0,-1.0,-100.00,North,5,10.0,15.0,38,-99.99,,,-99.99,,2013-01-24 04:43:00,
2013-01-23 23:52:00,21.0,-1.0,-100.00,North,5,10.0,15.0,38,-99.99,,,-99.99,,2013-01-24 04:52:00,